Вернуться в каталог

CZ-6A DEB

АктивенPO
NORAD 55196·DEBRIS·🇨🇳 China

Запущен Nov 11, 2022 с Taiyuan Satellite Launch Center

Loading…

Ближайшие Пролёты (ближайшие 24 часа)

TLE

СвежийSource: Space-Track

Эпоха: Sep 13, 2026, 19:10 UTC

1 55196U 22151VM  26256.79863157  .00010702  00000-0  12340-2 0  9996
2 55196  98.6274 339.6809 0055633 334.0512  25.7913 14.84752418198810

Отслеживайте CZ-6A DEB в реальном времени с AllMySat

Download on the App Store